Location: Ebenezer
(18.2167°N, 63.0667°W)
Time: 20:49:36
(UTC+00:00)

Cosmos 1437 - Pass Details

Date: 26 January 2020
Orbit: 377 x 381 km, 81.2° (Epoch: 22 February)

Event Time Altitude Azimuth Distance (km) Brightness Sun altitude
Rises 23:04:48 0° 185° (S) 2,246 6.7 -14.8°
Reaches altitude 10° 23:06:47 10° 185° (S) 1,394 5.6 -15.3°
Maximum altitude 23:09:48 89° 105° (ESE) 384 2.4 -16.0°
Enters shadow 23:11:57 18° 6° (N) 1,029 4.5 -16.5°
